Regional Weather Roundup
Issued by NWS

Home | Current Version | Previous Version | Text Only | Print | Product List | Glossary Off
Versions: 1 2 3 4 5 6 7 8 9 10 11 12 13 14 15 16 17 18 19 20 21 22 23 24 25 26 27 28

000
ASUS45 KCYS 210810
RWRWY

WYOMING REGIONAL WEATHER ROUNDUP
NATIONAL WEATHER SERVICE CHEYENNE WY
200 AM MDT THU SEP 21 2017

NOTE:  "FAIR" INDICATES FEW OR NO CLOUDS BELOW 12,000 FEET
WITH NO SIGNIFICANT WEATHER AND/OR OBSTRUCTIONS TO VISIBILITY.

WYZ001-210900-
YELLOWSTONE NATIONAL PARK

CITY           SKY/WX    TMP DP  RH WIND       PRES   REMARKS
LK YELLOWSTONE NOT AVBL
W YELLOWSTONE  NOT AVBL

$$
WYZ002>013-054>058-071-098>099-210900-
NORTHERN WYOMING

CITY           SKY/WX    TMP DP  RH WIND       PRES   REMARKS
JACKSON        CLOUDY    37  36  96 NW5       29.78F WCI  33
CODY           LGT RAIN  50  38  63 SW15      29.73S
GREYBULL       LGT RAIN  52  46  80 N10       29.68F
WORLAND        MOCLDY    55  38  52 NW9       29.66F
SHERIDAN       CLOUDY    53  37  54 N10       29.70R
BUFFALO        CLOUDY    55  28  35 NW8       29.72R
GILLETTE       MOCLDY    56  37  49 S7        29.67F
HULETT         FAIR      59  32  36 E10       29.71S
NEWCASTLE      FAIR      59  30  33 SE17G24   29.71F

$$
WYZ014>020-022>026-101>103-210900-
CENTRAL WYOMING

CITY           SKY/WX    TMP DP  RH WIND       PRES   REMARKS
BIG PINEY      FAIR      40  36  86 NW12      29.77R WCI  33
PINEDALE       FAIR      37  36  93 NW6       29.77R WCI  33
DUBOIS         RAIN      34  32  93 NW9       29.79R WCI  26
LANDER           N/A    N/A N/A N/A MISG      29.69F
RIVERTON       FAIR      47  34  60 NW10      29.68F
CASPER         FAIR      40  34  79 CALM      29.69F
DOUGLAS        FAIR      53  31  42 SE15      29.71F

$$
WYZ021-027>030-104>119-210900-
SOUTHERN WYOMING

CITY           SKY/WX    TMP DP  RH WIND       PRES   REMARKS
EVANSTON       FAIR      44  36  73 NW12      29.75R
KEMMERER         N/A     43  34  70 NE3       29.75S
FORT BRIDGER   FAIR      45  35  69 NW6       29.77S
ROCK SPRINGS   FAIR      56  31  38 S15       29.71F
DIXON          FAIR      63  26  25 S15G21    29.83S
RAWLINS        FAIR      54  33  45 S13       29.77F
SARATOGA       FAIR      59  28  31 SE12G17   29.83S
LARAMIE        FAIR      52  26  36 S15       29.86F
CHEYENNE       FAIR      49  31  49 S6        29.87R
TORRINGTON     FAIR      56  34  43 SE13      29.76S
PINE BLUFFS    FAIR      54  32  43 S10       29.83S

$$




USA.gov is the U.S. government's official web portal to all federal, state and local government web resources and services.